COSMOS 1275 DEB, 42145

Orbit data source: Space-Track

COSMOS 1275 DEB, 42145 is space debris in LEO originally from a launch on Thu, 04 Jun 1981 UTC launched from the Plesetsk Missile And Space Complex (PKMTR). Debris objects in space refer to the collection of defunct objects orbiting the Earth. Examples of debris include non-operational satellites, rocket bodies, and fragments generated from explosions, collisions, or faulty payload assembly.

Loading next visibility...
Identifier
42145, 1981-053RH
Orbit
LEO
Country
Flag of CISCIS
Related business
Manufacturer
Unknown
Mission
Spacecraft
Bus & Motor
Unknown
Mass
Unknown
Launch date (UTC)
1981-06-04 (45 years ago)
Launch vehicle
Unknown
Launch site
Plesetsk Missile And Space Complex (PKMTR)
Object type
Payload
Rocket body
Debris
Shape & HBR
Unknown shape, 0.1 m
Radar Cross Section
Small (<0.1 m²)

Expand to show TLE details & history
Last TLE update: 4 weeks ago

TLE from 4 weeks ago
0 COSMOS 1275 DEB
1 42145U 81053RH  26212.32619638  .00139463  00000-0  40184-2 0  9999
2 42145  83.3366  68.4398 0008657 177.4939 182.6352 15.35141586670875
Epoch: 2026-07-31T07:49Z
TLE epoch observation values (Epoch: 2026-07-31T07:49:43.367Z)
Latitude
0.00005°
Longitude
2.05514°
Altitude
469.546 km
Speed
7.628 km/s
True Right ascension
04h 33m 45s
True Declination
0° 00' 00"
Sunlit
Object was in daylight at epoch
Visualization orbit readout
Latitude
Unknown
Longitude
Unknown
Altitude
Unknown
Speed
Unknown
Apparent Right ascension
Unknown
Apparent Declination
Unknown
Sunlit
N/A
Visualization observer readout
Local Sidereal Time
00:06:09
Azimuth
Unknown
Elevation
Unknown
Doppler factor
Unknown
Orbital elements
Apogee altitude
463.333 km
Perigee altitude
451.498 km
Semi-major axis
6,835.552 km
Eccentricity
0.00087
Inclination
83.3366°
RAAN
68.4398°
Arg. of periapsis
177.4939°
True anomaly
182.63064°
Mean anomaly
182.6352°
Eccentric anomaly
182.63292°
Mean motion
3.84046 °/min
Orbital period
93.74 mins
BSTAR
0.0040184
Loading maneuver chart data...
Computing Atmospheric mass density...
Loading historical data...
Loading historical data...
Loading historical data...
Loading historical data...
Loading historical data...
Loading historical data...
Loading historical data...

Documentation

Showing up to 5 results
|